Wormit, United Kingdom

3:40 PM GMT on February 20, 2017 (GMT +0000)
Dundee

Weather History for EGPN - November, 2011

Change the Weather History Date:

Monday, November 28, 2011

  Actual Average Record
Temperature  
Mean Temperature 48 °F -  
Max Temperature 50 °F 42 °F 53 °F (1997)
Min Temperature 46 °F 36 °F 28 °F (2012)
Degree Days  
Heating Degree Days 17    
Moisture  
Dew Point 43 °F    
Average Humidity 82    
Maximum Humidity 94    
Minimum Humidity 71    
Precipitation  
Precipitation 0.00 in - - ()
Sea Level Pressure  
Sea Level Pressure 29.75 in    
Wind  
Wind Speed 19 mph ()    
Max Wind Speed 36 mph    
Max Gust Speed 40 mph    
Visibility 6.2 miles    
Events Rain    
Averages and records for this station are not official NWS values.
T = Trace of Precipitation, MM = Missing Value Source: Averaged Metar Reports

Daily Weather History Graph

Daily Weather History Graph

Search for Another Location

Airport or City:

Trip Planner

Search our weather history database for the weather conditions in past years. The results will help you decide how hot, cold, wet, or windy it might be!

Date:

Astronomy

Nov. 28, 2011 Rise Set
Actual Time 8:15 AM GMT 3:43 PM GMT
Civil Twilight 7:30 AM GMT 4:29 PM GMT
Nautical Twilight 6:41 AM GMT 5:17 PM GMT
Astronomical Twilight 5:56 AM GMT 6:02 PM GMT
Moon 11:11 AM GMT (11/28) 7:20 PM GMT (11/28)
Length of Visible Light 8h 59m
Length of Day
7h 28m
Waxing Crescent, 14% of the Moon is Illuminated
Nov 28
Waxing Crescent
Dec 2
First Quarter
Dec 10
Full
Dec 18
Last Quarter
Dec 24
New

Hourly Weather History & Observations

Time (GMT) Temp. Windchill Dew Point Humidity Pressure Visibility Wind Dir Wind Speed Gust Speed Precip Events Conditions
6:20 AM 46.4 °F 39.0 °F 42.8 °F 87% 29.98 in 6.2 mi SW 19.6 mph - N/A   Partly Cloudy
6:50 AM 46.4 °F 38.7 °F 41.0 °F 81% 29.98 in 6.2 mi SW 20.7 mph - N/A   Scattered Clouds
7:20 AM 46.4 °F 38.3 °F 41.0 °F 81% 29.95 in 6.2 mi SW 23.0 mph - N/A   Scattered Clouds
7:50 AM 46.4 °F 38.5 °F 41.0 °F 81% 29.95 in 6.2 mi SW 21.9 mph - N/A   Scattered Clouds
8:20 AM 46.4 °F 38.1 °F 41.0 °F 81% 29.95 in 6.2 mi SW 24.2 mph - N/A   Scattered Clouds
8:50 AM 46.4 °F 38.7 °F 41.0 °F 81% 29.92 in 6.2 mi WSW 20.7 mph - N/A   Scattered Clouds
9:20 AM 46.4 °F 38.5 °F 41.0 °F 81% 29.92 in 6.2 mi WSW 21.9 mph - N/A   Scattered Clouds
9:50 AM 46.4 °F 37.9 °F 39.2 °F 76% 29.89 in 6.2 mi SW 25.3 mph - N/A   Scattered Clouds
10:20 AM 46.4 °F 37.0 °F 39.2 °F 76% 29.89 in 6.2 mi SW 31.1 mph - N/A   Light Drizzle
10:50 AM 46.4 °F 38.1 °F 41.0 °F 81% 29.86 in 6.2 mi SW 24.2 mph - N/A   Scattered Clouds
11:20 AM 46.4 °F 36.9 °F 41.0 °F 81% 29.86 in 6.2 mi SSW 32.2 mph - N/A   Scattered Clouds
11:50 AM 46.4 °F 38.3 °F 41.0 °F 81% 29.83 in 6.2 mi SW 23.0 mph - N/A   Partly Cloudy
12:20 PM 48.2 °F - 41.0 °F 76% 29.80 in 6.2 mi SW 28.8 mph 40.3 mph N/A   Partly Cloudy
12:50 PM 50.0 °F - 41.0 °F 71% 29.77 in 6.2 mi SW 35.7 mph - N/A   Partly Cloudy
1:20 PM 50.0 °F - 41.0 °F 71% 29.77 in 6.2 mi SW 25.3 mph - N/A   Partly Cloudy
1:50 PM 50.0 °F - 41.0 °F 71% 29.74 in 6.2 mi SSW 24.2 mph - N/A   Partly Cloudy
2:20 PM 50.0 °F - 42.8 °F 76% 29.74 in 6.2 mi SW 17.3 mph - N/A   Scattered Clouds
2:50 PM 50.0 °F - 42.8 °F 76% 29.71 in 6.2 mi SW 17.3 mph - N/A   Scattered Clouds
3:20 PM 50.0 °F - 42.8 °F 76% 29.68 in 6.2 mi SW 18.4 mph - N/A   Mostly Cloudy
3:50 PM 50.0 °F - 42.8 °F 76% 29.68 in 6.2 mi SW 19.6 mph - N/A   Mostly Cloudy
4:20 PM 50.0 °F - 44.6 °F 82% 29.68 in 6.2 mi SW 17.3 mph - N/A Rain Light Rain
4:50 PM 50.0 °F - 44.6 °F 82% 29.65 in 6.2 mi SW 15.0 mph - N/A Rain Light Rain
5:20 PM 50.0 °F - 46.4 °F 87% 29.65 in 6.2 mi SSW 11.5 mph - N/A Rain Light Rain
5:50 PM 50.0 °F - 46.4 °F 87% 29.62 in 6.2 mi SW 11.5 mph - N/A Rain Light Rain
6:20 PM 50.0 °F - 46.4 °F 87% 29.62 in 6.2 mi SW 15.0 mph - N/A Rain Rain
6:50 PM 50.0 °F - 48.2 °F 94% 29.62 in 6.2 mi SW 11.5 mph - N/A Rain Rain
7:20 PM 50.0 °F - 48.2 °F 94% 29.59 in 6.2 mi WSW 6.9 mph - N/A Rain Light Rain
7:50 PM 50.0 °F - 48.2 °F 94% 29.56 in 6.2 mi SW 17.3 mph - N/A Rain Light Rain
8:20 PM 50.0 °F - 46.4 °F 87% 29.53 in 6.2 mi SW 15.0 mph - N/A   Scattered Clouds
8:50 PM 50.0 °F - 46.4 °F 87% 29.53 in 6.2 mi WSW 12.7 mph - N/A   Mostly Cloudy
9:20 PM 50.0 °F - 46.4 °F 87% 29.53 in 6.2 mi WSW 12.7 mph - N/A   Mostly Cloudy
9:50 PM 50.0 °F - 46.4 °F 87% 29.50 in 6.2 mi WSW 6.9 mph - N/A Rain Light Rain